Regional Weather Roundup
Issued by NWS

Home | Current Version | Previous Version | Text Only | Print | Product List | Glossary Off
Versions: 1 2 3 4 5 6 7 8 9 10 11 12 13 14 15 16 17 18 19 20 21 22 23 24 25 26 27 28 29 30 31 32 33 34 35 36 37 38 39 40 41 42 43 44 45 46 47 48 49 50

000
ASUS43 KMKX 240920
RWRWI

WISCONSIN REGIONAL WEATHER ROUNDUP
NATIONAL WEATHER SERVICE MILWAUKEE/SULLIVAN WI
400 AM CDT THU JUL 24 2014

NOTE: "FAIR" INDICATES FEW OR NO CLOUDS BELOW 12,000 FEET WITH NO
SIGNIFICANT WEATHER AND/OR OBSTRUCTIONS TO VISIBILITY.

WIZ001-002-006>008-014>016-023>028-241000-
NORTHWEST WISCONSIN

CITY           SKY/WX    TMP DP  RH WIND       PRES   REMARKS
SUPERIOR ARPT  CLOUDY    52  52 100 CALM      30.19S FOG
ASHLAND        PTCLDY    51  50  96 W5        30.19S
HAYWARD        CLOUDY    54  52  93 CALM      30.19F
SIREN          CLOUDY    59  57  93 CALM      30.18S
RICE LAKE      MOCLDY    55  54  94 CALM      30.19F
LADYSMITH      MOCLDY    52  50  93 CALM      30.20S
EAU CLAIRE     CLOUDY    55  54  96 CALM      30.17S
MENOMONIE      PTSUNNY   60  57  91 CALM      30.18S
NEW RICHMOND   CLEAR     57  56  96 E3        30.18S
OSCEOLA        CLEAR     56  56 100 CALM      30.20S
$$

WIZ003>005-009-010-017-018-241000-
NORTH CENTRAL WISCONSIN

CITY           SKY/WX    TMP DP  RH WIND       PRES   REMARKS
WOODRUFF       CLEAR     46  40  79 CALM      30.20S
RHINELANDER    FOG       44  43  96 CALM      30.21S VSB 3/4
EAGLE RIVER    FOG       42  42 100 CALM      30.20S VSB 1/4
LAND O LAKES   CLEAR     42  42  99 CALM      30.21S FOG
PHILLIPS       PTCLDY    48  47  97 CALM      30.20R
TOMAHAWK       CLEAR     43  42  96 CALM      30.21S
MEDFORD        CLEAR     53  51  93 E3        30.20R
MERRILL        CLEAR     49  48  97 CALM      30.20S
$$

WIZ029-030-035-036-043>047-241000-
CENTRAL WISCONSIN

CITY           SKY/WX    TMP DP  RH WIND       PRES   REMARKS
WAUSAU         PTCLDY    54  51  90 SE3       30.19R
MOSINEE        CLEAR     52  52 100 CALM      30.21R
MARSHFIELD     CLEAR     56  52  86 SE6       30.19R
STEVENS POINT  MOCLDY    52  49  92 CALM      30.21R
WAUPACA        MOCLDY    55  53  94 CALM      30.21R
WAUTOMA        PTCLDY    52  49  89 CALM      30.21R
WISC RAPIDS    PTCLDY    55  52  89 CALM      30.21R
CAMP DOUGLAS   PTCLDY    55  55 100 E2        30.19R
$$

WIZ011>013-019>022-031-037>040-048>050-241000-
NORTHEAST WISCONSIN

CITY           SKY/WX    TMP DP  RH WIND       PRES   REMARKS
ANTIGO         CLEAR     48  47  96 CALM      30.21S
STURGEON BAY   CLEAR     50  45  81 CALM      30.19R
GREEN BAY      PTCLDY    53  51  93 W3        30.19R
MANITOWOC      CLEAR     51  49  92 CALM      30.19R
APPLETON       PTCLDY    54  46  76 N5        30.20R
CLINTONVILLE   PTCLDY    50  48  93 CALM      30.20R
OSHKOSH        MOCLDY    55  51  86 W7        30.19R
$$

WIZ032>034-041-042-053>061-241000-
SOUTHWEST WISCONSIN

CITY           SKY/WX    TMP DP  RH WIND       PRES   REMARKS
LA CROSSE      PTCLDY    61  58  90 CALM      30.16S
SPARTA         CLEAR     51  49  95 CALM      30.18S
VIROQUA        FAIR      59  58  97 SE6       30.19R
BOSCOBEL       CLEAR     55  53  93 CALM      30.19R FOG
PRAIRIE DU CHI CLEAR     60  55  81 E5        30.17S
PLATTEVILLE    FAIR      58  54  87 CALM      30.19S
$$

WIZ056-057-062-063-064-067-068-241000-
SOUTH CENTRAL WISCONSIN

CITY           SKY/WX    TMP DP  RH WIND       PRES   REMARKS
BARABOO/DELLS  PTCLDY    54  49  83 CALM      30.19R
LONE ROCK      CLOUDY    62  54  74 CALM      30.19R
WATERTOWN      CLEAR     52  50  94 CALM      30.17S
MADISON        PTCLDY    54  51  90 N5        30.19R
MIDDLETON      FAIR      52  51  93 CALM      30.19S
MONROE         CLEAR     55  50  82 N5        30.18R
JANESVILLE     CLEAR     52  50  93 CALM      30.17R
$$

WIZ051-052-058>065-066-070>072-241000-
SOUTHEAST WISCONSIN

CITY           SKY/WX    TMP DP  RH WIND       PRES   REMARKS
MILWAUKEE      CLEAR     56  50  80 NW3       30.15F
WAUKESHA       CLEAR     50  46  87 CALM      30.18S
MILWAUKEE/TIMM CLEAR     52  46  82 CALM      30.18R
RACINE         CLEAR     53  51  93 CALM      30.17S
BURLINGTON     CLEAR     47  47  99 CALM      30.17R
KENOSHA        CLEAR     54  51  90 N5        30.16S
FOND DU LAC    CLEAR     52  48  86 CALM      30.19R
SHEBOYGAN      MOCLDY    51  48  89 CALM      30.18R
WEST BEND      PTCLDY    48  45  87 CALM      30.18R
JUNEAU         CLEAR     51  48  90 N3        30.20R
$$

LSZ147-162-241000-
LAKE SUPERIOR

STATION/POSITION TIME  TEMP    WIND        PRES    WAVE
                       AIR SEA DIR/SP/G            HT/PER
                 (UTC) (F)     (DEG/KT/KT) (MB)    (FT/S)
$$

LMZ867-665-643>646-241000-
LAKE MICHIGAN

STATION/POSITION TIME  TEMP    WIND        PRES    WAVE
                       AIR SEA DIR/SP/G            HT/PER
                 (UTC) (F)     (DEG/KT/KT) (MB)    (FT/S)
$$

TC  - TEMPERATURE IN CELSIUS
VSB - VISIBILITY IN STATUTE MILES
WCI - WIND CHILL INDEX
HX  - HEAT INDEX




USA.gov is the U.S. government's official web portal to all federal, state and local government web resources and services.